This is the latest recevied weather packets stored in our database for station/object EA1IOK-13. If no packets are shown the sender has not sent any weather packets the latest 10 day(s).
| Time | Temp. | Humidity | Pressure | Rain* | Wind** | Luminosity | Snow |
|---|---|---|---|---|---|---|---|
| 1777341185 | 11.11° C | 97% | 1013.7 hPa | 0 mm | - | - | - |
| 1777340285 | 11.11° C | 97% | 1013.7 hPa | 0 mm | - | - | - |
| 1777339386 | 11.11° C | 97% | 1013.8 hPa | 0 mm | - | - | - |
| 1777338485 | 11.11° C | 96% | 1014 hPa | 0 mm | - | - | - |
| 1777337587 | 11.11° C | 96% | 1014 hPa | 0 mm | - | - | - |
| 1777336688 | 11.11° C | 96% | 1014.3 hPa | 0 mm | - | - | - |
| 1777334886 | 11.11° C | 96% | 1014.5 hPa | 0 mm | - | - | - |
| 1777333989 | 11.11° C | 96% | 1014.2 hPa | 0 mm | - | - | - |
| 1777331289 | 11.67° C | 94% | 1014.2 hPa | 0 mm | - | - | - |
| 1777330387 | 11.67° C | 94% | 1014.3 hPa | 0 mm | - | - | - |
| 1777329485 | 11.67° C | 94% | 1014.4 hPa | 0 mm | - | - | - |
| 1777328586 | 12.22° C | 93% | 1014.3 hPa | 0 mm | - | - | - |
| 1777327686 | 12.22° C | 92% | 1014.5 hPa | 0 mm | - | - | - |
| 1777326786 | 12.78° C | 91% | 1014.5 hPa | 0 mm | - | - | - |
| 1777325885 | 12.78° C | 91% | 1014.4 hPa | 0 mm | - | - | - |
| 1777324991 | 13.33° C | 90% | 1014.3 hPa | 0 mm | - | - | - |
| 1777324085 | 13.89° C | 90% | 1014.3 hPa | 0 mm | - | - | - |
| 1777323193 | 14.44° C | 89% | 1014.4 hPa | 0 mm | - | - | - |
| 1777322286 | 15° C | 88% | 1014.3 hPa | 0 mm | - | - | - |
| 1777321386 | 15° C | 87% | 1014.2 hPa | 0 mm | - | - | - |
| 1777320487 | 16.11° C | 86% | 1014.1 hPa | 0 mm | - | - | - |
| 1777319586 | 16.67° C | 84% | 1014.1 hPa | 0 mm | - | - | - |
| 1777318686 | 17.22° C | 84% | 1014.1 hPa | 0 mm | - | - | - |
| 1777317789 | 17.78° C | 82% | 1014.1 hPa | 0 mm | - | - | - |
| 1777316886 | 18.33° C | 80% | 1014.1 hPa | 0 mm | - | - | - |
* Rain latest hour (hover to see other rain measurements)
** Current wind speed in m/s (hover to see current wind gust speed)